| time (UTC) | temp F | wind direction | speed knots | gust knots | rain 1hr in | rain 24hr in | rain mn in | humidity % | barometer mb |
| 20260507092505 | 64 | 117 | 0.0 | 0.0 | 0.01 | 0.72 | 0.48 | 94 | 1009.8 |
| 20260507092005 | 64 | 117 | 0.0 | 0.0 | 0.01 | 0.72 | 0.48 | 94 | 1009.8 |
| 20260507090505 | 64 | 117 | 0.0 | 0.0 | 0.01 | 0.71 | 0.47 | 94 | 1009.8 |
| 20260507090005 | 63 | 117 | 0.0 | 0.0 | 0.01 | 0.71 | 0.47 | 94 | 1009.8 |
| 20260507084505 | 63 | 24 | 0.0 | 0.0 | 0.02 | 0.71 | 0.47 | 94 | 1009.8 |
| 20260507084006 | 64 | 24 | 0.0 | 0.0 | 0.02 | 0.71 | 0.47 | 94 | 1009.8 |
| 20260507083505 | 63 | 24 | 0.0 | 0.0 | 0.03 | 0.71 | 0.47 | 94 | 1009.8 |
| 20260507083006 | 63 | 24 | 0.0 | 0.0 | 0.03 | 0.71 | 0.47 | 94 | 1009.8 |
| 20260507082505 | 63 | 24 | 0.0 | 0.0 | 0.03 | 0.71 | 0.47 | 94 | 1009.8 |
| 20260507082005 | 63 | 24 | 0.0 | 0.0 | 0.03 | 0.71 | 0.47 | 94 | 1009.8 |
| 20260507081505 | 63 | 24 | 0.0 | 0.0 | 0.03 | 0.71 | 0.47 | 94 | 1009.8 |
| 20260507081005 | 63 | 24 | 0.0 | 0.0 | 0.03 | 0.71 | 0.47 | 94 | 1009.8 |
| 20260507080506 | 63 | 24 | 0.0 | 0.0 | 0.02 | 0.70 | 0.46 | 94 | 1009.8 |
| 20260507080005 | 63 | 24 | 0.0 | 0.0 | 0.02 | 0.70 | 0.46 | 94 | 1010.2 |
| 20260507075005 | 63 | 24 | 0.0 | 0.0 | 0.02 | 0.70 | 0.46 | 94 | 1010.5 |
| 20260507074505 | 63 | 24 | 0.0 | 0.9 | 0.02 | 0.70 | 0.46 | 94 | 1010.5 |
| 20260507074006 | 64 | 24 | 0.0 | 0.9 | 0.02 | 0.70 | 0.46 | 94 | 1010.5 |
| 20260507073505 | 64 | 24 | 0.9 | 2.6 | 0.01 | 0.69 | 0.45 | 94 | 1010.5 |
| 20260507073005 | 64 | 330 | 0.0 | 2.6 | 0.00 | 0.68 | 0.44 | 94 | 1010.5 |
| 20260507072506 | 64 | 13 | 0.9 | 2.6 | 0.00 | 0.68 | 0.44 | 94 | 1010.5 |
| 20260507072005 | 64 | 12 | 0.9 | 1.7 | 0.00 | 0.68 | 0.44 | 93 | 1010.5 |
| 20260507071506 | 64 | 5 | 0.0 | 0.9 | 0.00 | 0.68 | 0.44 | 94 | 1010.5 |
| 20260507071005 | 64 | 299 | 0.0 | 0.9 | 0.00 | 0.68 | 0.44 | 93 | 1010.5 |
| 20260507070505 | 64 | 294 | 0.0 | 1.7 | 0.01 | 0.68 | 0.44 | 93 | 1010.5 |
| 20260507065506 | 64 | 94 | 0.0 | 1.7 | 0.03 | 0.68 | 0.44 | 93 | 1010.5 |
| 20260507065005 | 64 | 258 | 1.7 | 4.3 | 0.04 | 0.68 | 0.44 | 93 | 1010.5 |
| 20260507064005 | 64 | 22 | 0.9 | 2.6 | 0.07 | 0.68 | 0.44 | 93 | 1010.5 |
| 20260507063506 | 64 | 24 | 0.9 | 2.6 | 0.09 | 0.68 | 0.44 | 93 | 1010.5 |
| 20260507063006 | 64 | 28 | 0.0 | 1.7 | 0.11 | 0.68 | 0.44 | 93 | 1010.5 |
| 20260507062505 | 64 | 18 | 0.0 | 0.0 | 0.13 | 0.68 | 0.44 | 93 | 1010.5 |
| 20260507062005 | 64 | 16 | 0.0 | 0.0 | 0.14 | 0.68 | 0.44 | 93 | 1010.5 |
| 20260507061005 | 64 | 16 | 0.9 | 2.6 | 0.16 | 0.68 | 0.44 | 93 | 1011.0 |
| 20260507060505 | 64 | 36 | 0.0 | 0.9 | 0.18 | 0.68 | 0.44 | 93 | 1011.0 |
| 20260507060005 | 64 | 36 | 0.0 | 0.9 | 0.19 | 0.68 | 0.44 | 93 | 1012.0 |
| 20260507055505 | 64 | 36 | 0.0 | 0.9 | 0.19 | 0.67 | 0.43 | 94 | 1012.0 |
| 20260507055005 | 64 | 36 | 0.9 | 1.7 | 0.20 | 0.66 | 0.42 | 94 | 1012.0 |
| 20260507054505 | 64 | 17 | 0.0 | 1.7 | 0.20 | 0.64 | 0.40 | 93 | 1012.0 |
| 20260507054005 | 64 | 16 | 0.9 | 2.6 | 0.19 | 0.62 | 0.38 | 93 | 1012.0 |
| 20260507053505 | 64 | 15 | 0.9 | 2.6 | 0.20 | 0.61 | 0.37 | 93 | 1012.0 |
| 20260507053005 | 64 | 132 | 0.0 | 0.9 | 0.20 | 0.60 | 0.36 | 93 | 1012.0 |
| 20260507052506 | 64 | 132 | 0.0 | 1.7 | 0.24 | 0.58 | 0.34 | 93 | 1012.0 |
| 20260507052006 | 64 | 81 | 0.0 | 1.7 | 0.29 | 0.56 | 0.32 | 93 | 1012.0 |
| 20260507051506 | 64 | 13 | 0.9 | 1.7 | 0.29 | 0.54 | 0.30 | 93 | 1012.0 |
| 20260507051005 | 64 | 99 | 0.0 | 0.0 | 0.28 | 0.53 | 0.29 | 93 | 1012.6 |
| 20260507050505 | 64 | 99 | 0.0 | 0.0 | 0.28 | 0.52 | 0.28 | 93 | 1012.6 |
| 20260507050005 | 64 | 99 | 0.0 | 0.9 | 0.04 | 0.51 | 0.27 | 93 | 1012.6 |
| 20260507045505 | 64 | 12 | 0.0 | 1.7 | 0.02 | 0.49 | 0.25 | 93 | 1012.6 |
| 20260507045005 | 64 | 12 | 0.9 | 2.6 | 0.01 | 0.48 | 0.24 | 93 | 1012.6 |
| 20260507044504 | 64 | 121 | 0.0 | 2.6 | 0.23 | 0.46 | 0.22 | 93 | 1012.6 |
| 20260507043506 | 64 | 273 | 0.0 | 1.7 | 0.19 | 0.42 | 0.18 | 93 | 1012.6 |
| 20260507043006 | 64 | 34 | 0.9 | 1.7 | 0.18 | 0.41 | 0.17 | 93 | 1011.4 |
| 20260507042506 | 65 | 60 | 1.7 | 8.7 | 0.16 | 0.39 | 0.15 | 93 | 1011.4 |
| 20260507042006 | 65 | 324 | 1.7 | 6.1 | 0.11 | 0.33 | 0.09 | 93 | 1011.4 |
| 20260507041505 | 65 | 282 | 1.7 | 4.3 | 0.04 | 0.26 | 0.02 | 93 | 1011.4 |
| 20260507041005 | 65 | 346 | 1.7 | 2.6 | 0.03 | 0.25 | 0.01 | 93 | 1011.4 |
| 20260507040505 | 65 | 18 | 0.0 | 0.9 | 0.04 | 0.24 | 0.00 | 93 | 1011.4 |
| 20260507040005 | 65 | 232 | 0.0 | 1.7 | 0.06 | 0.24 | 0.00 | 93 | 1011.4 |
| 20260507035505 | 65 | 269 | 0.0 | 2.6 | 0.07 | 0.23 | 0.23 | 93 | 1011.4 |
| 20260507035005 | 65 | 11 | 0.9 | 2.6 | 0.07 | 0.23 | 0.23 | 93 | 1011.4 |
| 20260507034505 | 65 | 24 | 1.7 | 2.6 | 0.07 | 0.23 | 0.23 | 93 | 1011.4 |
| 20260507034005 | 65 | 14 | 0.9 | 1.7 | 0.07 | 0.23 | 0.23 | 93 | 1011.4 |
| 20260507033505 | 65 | 15 | 0.9 | 2.6 | 0.07 | 0.23 | 0.23 | 93 | 1011.4 |
| 20260507033007 | 65 | 44 | 0.0 | 0.9 | 0.07 | 0.23 | 0.23 | 93 | 1011.4 |
| 20260507032505 | 66 | 28 | 0.9 | 1.7 | 0.07 | 0.23 | 0.23 | 93 | 1011.4 |
| 20260507032005 | 66 | 28 | 0.0 | 1.7 | 0.07 | 0.23 | 0.23 | 93 | 1011.4 |
| 20260507031505 | 65 | 21 | 0.9 | 2.6 | 0.06 | 0.22 | 0.22 | 93 | 1011.4 |
| 20260507031005 | 66 | 113 | 2.6 | 7.0 | 0.06 | 0.22 | 0.22 | 93 | 1011.4 |
| 20260507030005 | 67 | 35 | 0.9 | 5.2 | 0.06 | 0.21 | 0.21 | 92 | 1011.4 |
| 20260507025504 | 69 | 26 | 2.6 | 6.1 | 0.05 | 0.20 | 0.20 | 93 | 1011.4 |
| 20260507025005 | 70 | 3 | 1.7 | 7.8 | 0.02 | 0.17 | 0.17 | 93 | 1011.4 |
| 20260507024505 | 70 | 268 | 0.0 | 0.0 | 0.01 | 0.16 | 0.16 | 93 | 1011.4 |
| 20260507024006 | 70 | 265 | 0.0 | 0.0 | 0.01 | 0.16 | 0.16 | 93 | 1011.4 |
| 20260507023505 | 70 | 251 | 0.0 | 0.0 | 0.01 | 0.16 | 0.16 | 93 | 1011.4 |
| 20260507022505 | 70 | 260 | 0.0 | 0.0 | 0.01 | 0.16 | 0.16 | 93 | 1011.4 |
| 20260507022005 | 70 | 260 | 0.0 | 0.0 | 0.01 | 0.16 | 0.16 | 93 | 1011.4 |
| 20260507021505 | 70 | 260 | 0.0 | 0.0 | 0.01 | 0.16 | 0.16 | 93 | 1011.4 |
| 20260507021006 | 70 | 260 | 0.0 | 0.0 | 0.01 | 0.16 | 0.16 | 93 | 1011.4 |
| 20260507020505 | 70 | 253 | 0.0 | 0.0 | 0.01 | 0.16 | 0.16 | 93 | 1011.4 |
| 20260507020005 | 70 | 162 | 0.0 | 0.0 | 0.01 | 0.16 | 0.16 | 93 | 1011.4 |
| 20260507015005 | 70 | 186 | 0.0 | 0.0 | 0.00 | 0.15 | 0.15 | 93 | 1011.4 |
| 20260507014005 | 70 | 171 | 0.0 | 0.0 | 0.00 | 0.15 | 0.15 | 93 | 1011.4 |
| 20260507013505 | 70 | 171 | 0.0 | 0.0 | 0.00 | 0.15 | 0.15 | 93 | 1011.4 |
| 20260507012506 | 70 | 171 | 0.0 | 0.0 | 0.00 | 0.15 | 0.15 | 93 | 1011.4 |
| 20260507012005 | 71 | 171 | 0.0 | 0.0 | 0.00 | 0.15 | 0.15 | 93 | 1011.4 |
| 20260507010506 | 71 | 171 | 0.0 | 0.0 | 0.01 | 0.15 | 0.15 | 93 | 1011.4 |
| 20260507010005 | 71 | 171 | 0.0 | 0.0 | 0.01 | 0.15 | 0.15 | 92 | 1011.4 |
| 20260507005505 | 71 | 171 | 0.0 | 0.0 | 0.01 | 0.15 | 0.15 | 92 | 1011.4 |
| 20260507004505 | 71 | 144 | 0.0 | 0.9 | 0.03 | 0.15 | 0.15 | 92 | 1011.4 |
| 20260507004005 | 71 | 118 | 0.0 | 0.9 | 0.03 | 0.15 | 0.15 | 92 | 1011.4 |
| 20260507003505 | 71 | 118 | 0.0 | 0.9 | 0.03 | 0.15 | 0.15 | 93 | 1011.4 |
| 20260507003006 | 71 | 118 | 0.0 | 0.9 | 0.03 | 0.15 | 0.15 | 92 | 1011.7 |
| 20260507002505 | 71 | 202 | 0.0 | 0.0 | 0.03 | 0.15 | 0.15 | 92 | 1011.7 |
| 20260507002005 | 71 | 202 | 0.0 | 1.7 | 0.03 | 0.15 | 0.15 | 92 | 1011.7 |
| 20260507001505 | 71 | 202 | 0.0 | 1.7 | 0.03 | 0.15 | 0.15 | 92 | 1011.7 |
| 20260507001006 | 71 | 207 | 0.0 | 2.6 | 0.02 | 0.14 | 0.14 | 92 | 1011.7 |
| 20260507000505 | 71 | 237 | 0.9 | 2.6 | 0.02 | 0.14 | 0.14 | 92 | 1011.7 |
| 20260507000005 | 71 | 200 | 0.0 | 0.9 | 0.02 | 0.14 | 0.14 | 92 | 1011.7 |
| 20260506235505 | 71 | 199 | 0.0 | 0.9 | 0.02 | 0.14 | 0.14 | 92 | 1011.7 |
| 20260506235007 | 71 | 199 | 0.0 | 0.9 | 0.02 | 0.14 | 0.14 | 92 | 1011.7 |
| 20260506234505 | 71 | 199 | 0.0 | 0.9 | 0.03 | 0.13 | 0.13 | 92 | 1011.7 |
| 20260506234005 | 71 | 199 | 0.0 | 0.9 | 0.06 | 0.12 | 0.12 | 92 | 1011.0 |
| 20260506233005 | 71 | 199 | 0.0 | 0.9 | 0.12 | 0.12 | 0.12 | 92 | 1011.0 |
| 20260506232506 | 71 | 199 | 0.0 | 0.9 | 0.12 | 0.12 | 0.12 | 91 | 1011.0 |
| 20260506232006 | 71 | 199 | 0.0 | 0.9 | 0.12 | 0.12 | 0.12 | 92 | 1011.0 |
| 20260506231505 | 71 | 199 | 0.0 | 0.9 | 0.12 | 0.12 | 0.12 | 91 | 1011.0 |
| 20260506231005 | 71 | 190 | 0.0 | 0.9 | 0.12 | 0.12 | 0.12 | 91 | 1011.0 |
| 20260506230506 | 71 | 254 | 0.0 | 0.9 | 0.12 | 0.12 | 0.12 | 91 | 1011.0 |
| 20260506230005 | 71 | 224 | 0.9 | 1.7 | 0.12 | 0.12 | 0.12 | 91 | 1011.0 |
| 20260506225504 | 71 | 223 | 0.9 | 5.2 | 0.12 | 0.12 | 0.12 | 90 | 1011.0 |
| 20260506224505 | 72 | 1 | 0.9 | 2.6 | 0.12 | 0.12 | 0.12 | 88 | 1011.0 |
| 20260506223505 | 74 | 229 | 0.9 | 4.3 | 0.08 | 0.08 | 0.08 | 82 | 1011.0 |
| 20260506223005 | 76 | 216 | 1.7 | 6.1 | 0.00 | 0.00 | 0.00 | 78 | 1011.0 |
| 20260506222505 | 76 | 198 | 0.9 | 4.3 | 0.00 | 0.00 | 0.00 | 77 | 1011.0 |
| 20260506222006 | 76 | 75 | 0.9 | 2.6 | 0.00 | 0.00 | 0.00 | 77 | 1011.0 |
| 20260506221505 | 76 | 300 | 0.9 | 2.6 | 0.00 | 0.00 | 0.00 | 77 | 1011.0 |
| 20260506221005 | 76 | 70 | 1.7 | 2.6 | 0.00 | 0.00 | 0.00 | 77 | 1012.0 |
| 20260506220505 | 76 | 194 | 1.7 | 5.2 | 0.00 | 0.00 | 0.00 | 76 | 1012.0 |
| 20260506220006 | 77 | 250 | 1.7 | 4.3 | 0.00 | 0.00 | 0.00 | 75 | 1012.0 |
| 20260506215006 | 77 | 195 | 0.9 | 4.3 | 0.00 | 0.00 | 0.00 | 75 | 1012.0 |
| 20260506214505 | 77 | 264 | 1.7 | 4.3 | 0.00 | 0.00 | 0.00 | 75 | 1012.0 |
| 20260506214006 | 77 | 262 | 0.9 | 6.1 | 0.00 | 0.00 | 0.00 | 75 | 1012.0 |
| 20260506213505 | 77 | 236 | 2.6 | 6.1 | 0.00 | 0.00 | 0.00 | 74 | 1012.0 |
| 20260506213004 | 77 | 0 | 1.7 | 5.2 | 0.00 | 0.00 | 0.00 | 75 | 1012.0 |
| 20260506212006 | 77 | 169 | 0.9 | 5.2 | 0.00 | 0.00 | 0.00 | 75 | 1012.0 |
| 20260506211505 | 77 | 298 | 0.9 | 5.2 | 0.00 | 0.00 | 0.00 | 74 | 1012.0 |
| 20260506211005 | 77 | 213 | 1.7 | 4.3 | 0.00 | 0.00 | 0.00 | 73 | 1012.0 |
| 20260506210505 | 78 | 19 | 0.9 | 2.6 | 0.00 | 0.00 | 0.00 | 73 | 1012.0 |
| 20260506210005 | 78 | 3 | 0.9 | 4.3 | 0.00 | 0.00 | 0.00 | 73 | 1012.0 |
| 20260506205505 | 78 | 216 | 1.7 | 4.3 | 0.00 | 0.00 | 0.00 | 72 | 1012.0 |
| 20260506205006 | 78 | 274 | 1.7 | 4.3 | 0.00 | 0.00 | 0.00 | 71 | 1012.0 |
| 20260506204005 | 78 | 163 | 1.7 | 7.8 | 0.00 | 0.00 | 0.00 | 71 | 1012.0 |
| 20260506203505 | 78 | 253 | 0.9 | 2.6 | 0.00 | 0.00 | 0.00 | 72 | 1012.0 |
| 20260506203005 | 78 | 130 | 0.9 | 2.6 | 0.00 | 0.00 | 0.00 | 71 | 1012.0 |
| 20260506202505 | 77 | 224 | 0.9 | 2.6 | 0.00 | 0.00 | 0.00 | 71 | 1012.0 |
| 20260506202005 | 77 | 58 | 0.9 | 4.3 | 0.00 | 0.00 | 0.00 | 71 | 1012.6 |
| 20260506201505 | 77 | 221 | 1.7 | 4.3 | 0.00 | 0.00 | 0.00 | 71 | 1012.6 |
| 20260506201006 | 77 | 156 | 1.7 | 7.0 | 0.00 | 0.00 | 0.00 | 70 | 1012.6 |
| 20260506200505 | 77 | 152 | 0.9 | 5.2 | 0.00 | 0.00 | 0.00 | 70 | 1012.6 |
| 20260506195005 | 78 | 183 | 1.7 | 10.4 | 0.00 | 0.00 | 0.00 | 68 | 1012.7 |
| 20260506194505 | 79 | 200 | 1.7 | 10.4 | 0.00 | 0.00 | 0.00 | 67 | 1012.7 |
| 20260506194005 | 79 | 359 | 1.7 | 6.1 | 0.00 | 0.00 | 0.00 | 67 | 1012.7 |
| 20260506193506 | 80 | 91 | 1.7 | 4.3 | 0.00 | 0.00 | 0.00 | 67 | 1012.7 |
| 20260506193005 | 79 | 241 | 1.7 | 4.3 | 0.00 | 0.00 | 0.00 | 67 | 1013.5 |
| 20260506192505 | 79 | 211 | 1.7 | 5.2 | 0.00 | 0.00 | 0.00 | 67 | 1013.5 |
| 20260506192006 | 80 | 340 | 0.9 | 2.6 | 0.00 | 0.00 | 0.00 | 66 | 1013.5 |
| 20260506191506 | 80 | 244 | 1.7 | 2.6 | 0.00 | 0.00 | 0.00 | 65 | 1013.5 |
| 20260506191007 | 81 | 356 | 1.7 | 2.6 | 0.00 | 0.00 | 0.00 | 63 | 1013.5 |
| 20260506190504 | 81 | 86 | 1.7 | 2.6 | 0.00 | 0.00 | 0.00 | 63 | 1013.5 |
| 20260506190007 | 81 | 251 | 1.7 | 6.1 | 0.00 | 0.00 | 0.00 | 62 | 1013.5 |
| 20260506185506 | 82 | 187 | 1.7 | 6.1 | 0.00 | 0.00 | 0.00 | 63 | 1013.5 |
| 20260506185005 | 82 | 178 | 0.9 | 2.6 | 0.00 | 0.00 | 0.00 | 65 | 1013.5 |
| 20260506184505 | 81 | 32 | 1.7 | 6.1 | 0.00 | 0.00 | 0.00 | 64 | 1013.5 |
| 20260506184005 | 81 | 117 | 0.9 | 2.6 | 0.00 | 0.00 | 0.00 | 65 | 1013.5 |
| 20260506183006 | 79 | 327 | 0.9 | 6.1 | 0.00 | 0.00 | 0.00 | 65 | 1013.5 |
| 20260506182506 | 80 | 260 | 0.9 | 5.2 | 0.00 | 0.00 | 0.00 | 67 | 1013.5 |
| 20260506182005 | 79 | 245 | 0.0 | 8.7 | 0.00 | 0.00 | 0.00 | 66 | 1013.5 |
| 20260506181505 | 79 | 225 | 2.6 | 8.7 | 0.00 | 0.00 | 0.00 | 65 | 1013.5 |
| 20260506180506 | 79 | 170 | 0.9 | 7.0 | 0.00 | 0.00 | 0.00 | 66 | 1013.5 |
| 20260506175505 | 79 | 27 | 0.0 | 4.3 | 0.00 | 0.00 | 0.00 | 66 | 1013.5 |
| 20260506175005 | 78 | 24 | 0.9 | 2.6 | 0.00 | 0.00 | 0.00 | 65 | 1013.5 |
| 20260506174505 | 78 | 176 | 0.9 | 10.4 | 0.00 | 0.00 | 0.00 | 65 | 1013.5 |
| 20260506174005 | 79 | 191 | 1.7 | 7.0 | 0.00 | 0.00 | 0.00 | 64 | 1013.5 |
| 20260506173504 | 79 | 231 | 3.5 | 8.7 | 0.00 | 0.00 | 0.00 | 64 | 1013.5 |
| 20260506173005 | 78 | 234 | 1.7 | 4.3 | 0.00 | 0.00 | 0.00 | 66 | 1013.5 |
| 20260506172506 | 78 | 156 | 1.7 | 4.3 | 0.00 | 0.00 | 0.00 | 65 | 1013.5 |
| 20260506171005 | 79 | 149 | 2.6 | 7.0 | 0.00 | 0.00 | 0.00 | 65 | 1013.6 |
| 20260506170506 | 80 | 165 | 2.6 | 7.0 | 0.00 | 0.00 | 0.00 | 65 | 1013.6 |
| 20260506165505 | 78 | 279 | 1.7 | 8.7 | 0.00 | 0.00 | 0.00 | 67 | 1013.6 |
| 20260506165005 | 78 | 28 | 2.6 | 8.7 | 0.00 | 0.00 | 0.00 | 67 | 1013.6 |
| 20260506164505 | 78 | 245 | 1.7 | 6.1 | 0.00 | 0.00 | 0.00 | 67 | 1013.6 |
| 20260506164005 | 77 | 285 | 0.9 | 6.1 | 0.00 | 0.00 | 0.00 | 69 | 1013.9 |
| 20260506163506 | 77 | 205 | 0.9 | 2.6 | 0.00 | 0.00 | 0.00 | 69 | 1013.9 |
| 20260506163006 | 78 | 214 | 1.7 | 5.2 | 0.00 | 0.00 | 0.00 | 69 | 1013.9 |
| 20260506162505 | 77 | 196 | 1.7 | 6.1 | 0.00 | 0.00 | 0.00 | 69 | 1013.9 |
| 20260506162004 | 76 | 185 | 1.7 | 4.3 | 0.00 | 0.00 | 0.00 | 71 | 1013.9 |
| 20260506161005 | 75 | 324 | 0.9 | 4.3 | 0.00 | 0.00 | 0.00 | 72 | 1014.1 |
| 20260506160505 | 75 | 128 | 1.7 | 7.8 | 0.00 | 0.00 | 0.00 | 72 | 1014.1 |
| 20260506160005 | 75 | 196 | 2.6 | 8.7 | 0.00 | 0.00 | 0.00 | 72 | 1014.1 |
| 20260506155504 | 75 | 212 | 1.7 | 6.1 | 0.00 | 0.00 | 0.00 | 73 | 1014.1 |
| 20260506155006 | 74 | 162 | 1.7 | 6.1 | 0.00 | 0.00 | 0.00 | 75 | 1013.3 |
| 20260506153505 | 74 | 332 | 0.9 | 2.6 | 0.00 | 0.00 | 0.00 | 75 | 1013.3 |
| 20260506153005 | 73 | 166 | 1.7 | 5.2 | 0.00 | 0.00 | 0.00 | 75 | 1013.3 |
| 20260506152504 | 74 | 258 | 1.7 | 2.6 | 0.00 | 0.00 | 0.00 | 75 | 1013.3 |
| 20260506151505 | 73 | 209 | 1.7 | 7.8 | 0.00 | 0.00 | 0.00 | 77 | 1013.3 |
| 20260506151006 | 71 | 173 | 1.7 | 6.1 | 0.00 | 0.00 | 0.00 | 79 | 1013.3 |
| 20260506150505 | 71 | 19 | 1.7 | 6.1 | 0.00 | 0.00 | 0.00 | 80 | 1013.3 |
| 20260506150006 | 70 | 147 | 1.7 | 10.4 | 0.00 | 0.00 | 0.00 | 80 | 1013.3 |
| 20260506145505 | 70 | 290 | 0.9 | 5.2 | 0.00 | 0.00 | 0.00 | 80 | 1013.3 |
| 20260506145005 | 70 | 218 | 1.7 | 5.2 | 0.00 | 0.00 | 0.00 | 80 | 1013.3 |
| 20260506144505 | 70 | 223 | 1.7 | 4.3 | 0.00 | 0.00 | 0.00 | 80 | 1013.3 |
| 20260506144005 | 70 | 265 | 1.7 | 7.8 | 0.00 | 0.00 | 0.00 | 80 | 1013.3 |
| 20260506143505 | 70 | 246 | 1.7 | 7.8 | 0.00 | 0.00 | 0.00 | 80 | 1013.3 |
| 20260506143005 | 70 | 213 | 2.6 | 7.8 | 0.00 | 0.00 | 0.00 | 79 | 1013.3 |
| 20260506142505 | 71 | 273 | 0.9 | 5.2 | 0.00 | 0.00 | 0.00 | 78 | 1013.3 |
| 20260506142006 | 71 | 268 | 0.9 | 6.1 | 0.00 | 0.00 | 0.00 | 77 | 1013.3 |
| 20260506141005 | 71 | 161 | 1.7 | 6.1 | 0.00 | 0.00 | 0.00 | 77 | 1013.3 |
| 20260506140505 | 70 | 223 | 0.9 | 5.2 | 0.00 | 0.00 | 0.00 | 77 | 1013.3 |
| 20260506140005 | 70 | 242 | 0.9 | 4.3 | 0.00 | 0.00 | 0.00 | 77 | 1013.3 |
| 20260506135504 | 70 | 246 | 1.7 | 5.2 | 0.00 | 0.00 | 0.00 | 77 | 1013.3 |
| 20260506135005 | 70 | 270 | 2.6 | 8.7 | 0.00 | 0.00 | 0.00 | 77 | 1013.3 |
| 20260506134505 | 69 | 200 | 1.7 | 7.0 | 0.00 | 0.00 | 0.00 | 78 | 1013.3 |
| 20260506134005 | 70 | 252 | 1.7 | 6.1 | 0.00 | 0.00 | 0.00 | 78 | 1013.3 |
| 20260506133505 | 69 | 243 | 2.6 | 7.8 | 0.00 | 0.00 | 0.00 | 79 | 1013.3 |
| 20260506133005 | 69 | 250 | 0.9 | 4.3 | 0.00 | 0.00 | 0.00 | 80 | 1013.3 |
| 20260506132505 | 69 | 215 | 1.7 | 5.2 | 0.00 | 0.00 | 0.00 | 80 | 1013.3 |
| 20260506132005 | 69 | 223 | 0.0 | 5.2 | 0.00 | 0.00 | 0.00 | 81 | 1013.3 |
| 20260506131006 | 69 | 85 | 0.9 | 7.0 | 0.00 | 0.00 | 0.00 | 82 | 1013.3 |
| 20260506130505 | 68 | 17 | 0.9 | 2.6 | 0.00 | 0.00 | 0.00 | 82 | 1013.3 |
| 20260506130006 | 68 | 112 | 0.9 | 2.6 | 0.00 | 0.00 | 0.00 | 83 | 1013.3 |
| 20260506125505 | 68 | 252 | 0.0 | 2.6 | 0.00 | 0.00 | 0.00 | 83 | 1013.3 |
| 20260506125005 | 68 | 140 | 0.9 | 2.6 | 0.00 | 0.00 | 0.00 | 84 | 1013.3 |
| 20260506124505 | 68 | 244 | 0.9 | 2.6 | 0.00 | 0.00 | 0.00 | 85 | 1013.3 |
| 20260506124005 | 67 | 191 | 0.9 | 2.6 | 0.00 | 0.00 | 0.00 | 86 | 1013.3 |
| 20260506123506 | 67 | 242 | 0.0 | 2.6 | 0.00 | 0.00 | 0.00 | 86 | 1013.3 |
| 20260506122505 | 67 | 242 | 0.9 | 4.3 | 0.00 | 0.00 | 0.00 | 86 | 1013.3 |
| 20260506122005 | 67 | 288 | 0.0 | 1.7 | 0.00 | 0.00 | 0.00 | 86 | 1013.3 |
| 20260506121504 | 67 | 8 | 0.0 | 0.9 | 0.00 | 0.00 | 0.00 | 86 | 1013.3 |
| 20260506121004 | 67 | 201 | 0.0 | 1.7 | 0.00 | 0.00 | 0.00 | 86 | 1013.3 |
| 20260506120505 | 66 | 227 | 0.0 | 2.6 | 0.00 | 0.00 | 0.00 | 86 | 1013.3 |
| 20260506120006 | 66 | 85 | 0.0 | 2.6 | 0.00 | 0.00 | 0.00 | 86 | 1012.3 |
| 20260506115506 | 66 | 84 | 0.0 | 1.7 | 0.00 | 0.00 | 0.00 | 86 | 1012.3 |
| 20260506115006 | 66 | 113 | 0.9 | 2.6 | 0.00 | 0.00 | 0.00 | 86 | 1012.3 |
| 20260506114504 | 66 | 157 | 0.9 | 2.6 | 0.00 | 0.00 | 0.00 | 86 | 1012.3 |
| 20260506114006 | 66 | 186 | 0.9 | 1.7 | 0.00 | 0.00 | 0.00 | 86 | 1012.3 |
| 20260506113505 | 66 | 234 | 0.9 | 1.7 | 0.00 | 0.00 | 0.00 | 86 | 1012.3 |
| 20260506113005 | 66 | 231 | 0.0 | 1.7 | 0.00 | 0.00 | 0.00 | 86 | 1012.3 |
| 20260506112504 | 66 | 155 | 0.0 | 1.7 | 0.00 | 0.00 | 0.00 | 87 | 1012.3 |
| 20260506112005 | 66 | 204 | 0.9 | 4.3 | 0.00 | 0.00 | 0.00 | 87 | 1012.3 |
| 20260506111505 | 66 | 69 | 0.0 | 2.6 | 0.00 | 0.00 | 0.00 | 87 | 1012.3 |
| 20260506111005 | 65 | 217 | 0.0 | 1.7 | 0.00 | 0.00 | 0.00 | 87 | 1012.3 |
| 20260506110005 | 65 | 162 | 0.0 | 2.6 | 0.00 | 0.00 | 0.00 | 87 | 1012.3 |
| 20260506105505 | 65 | 243 | 0.0 | 0.9 | 0.00 | 0.00 | 0.00 | 87 | 1012.3 |
| 20260506105005 | 65 | 202 | 0.0 | 0.0 | 0.00 | 0.00 | 0.00 | 87 | 1012.3 |
| 20260506104505 | 65 | 187 | 0.0 | 0.9 | 0.00 | 0.00 | 0.00 | 87 | 1012.3 |
| 20260506104005 | 65 | 211 | 0.0 | 0.9 | 0.00 | 0.00 | 0.00 | 87 | 1012.3 |
| 20260506103505 | 65 | 259 | 0.0 | 0.0 | 0.00 | 0.00 | 0.00 | 87 | 1012.3 |
| 20260506103005 | 65 | 270 | 0.0 | 1.7 | 0.00 | 0.00 | 0.00 | 87 | 1012.3 |
| 20260506101505 | 65 | 135 | 0.9 | 2.6 | 0.00 | 0.00 | 0.00 | 87 | 1011.6 |
| 20260506101005 | 65 | 159 | 0.0 | 0.9 | 0.00 | 0.00 | 0.00 | 87 | 1011.6 |
| 20260506100005 | 65 | 222 | 0.0 | 0.9 | 0.00 | 0.00 | 0.00 | 86 | 1011.6 |
| 20260506095505 | 65 | 232 | 0.0 | 1.7 | 0.00 | 0.00 | 0.00 | 86 | 1011.6 |
| 20260506094505 | 65 | 234 | 0.0 | 0.9 | 0.00 | 0.00 | 0.00 | 86 | 1011.6 |
| 20260506094005 | 65 | 215 | 0.0 | 1.7 | 0.00 | 0.00 | 0.00 | 86 | 1011.6 |
| 20260506093505 | 65 | 201 | 0.0 | 1.7 | 0.00 | 0.00 | 0.00 | 86 | 1011.6 |
| 20260506093006 | 65 | 211 | 0.0 | 0.9 | 0.00 | 0.00 | 0.00 | 85 | 1011.6 |